Zurück zum Katalog

FLOCK 4H 35

AktivWissenschaftSSO
NORAD 66738·PAYLOAD·🇺🇸 United States

Gestartet Nov 28, 2025 von Vandenberg Space Force Base

Loading…

Nächste Überflüge (nächste 24 Stunden)

TLE

AktuellSource: CelesTrak SupGP

Epoche: Sep 14, 2026, 12:45 UTC

1 66738C 25276CA  26257.53143519  .00006341  00000+0  28196-3 0  2574
2 66738  97.4122 329.9544 0001708  30.7845 159.3952 15.21574050    11

Verfolge FLOCK 4H 35 in Echtzeit mit AllMySat

Download on the App Store